Regional Weather Roundup
Issued by NWS

Home | Current Version | Previous Version | Text Only | Print | Product List | Glossary On
Versions: 1 2 3 4 5 6 7 8 9 10 11 12 13 14 15 16 17 18 19 20 21 22 23 24 25 26 27 28 29 30 31 32 33 34 35 36 37 38 39 40 41 42 43 44 45 46 47 48 49 50
000
ASUS43 KMKX 010221
RWRWI

WISCONSIN REGIONAL WEATHER ROUNDUP
NATIONAL WEATHER SERVICE MILWAUKEE/SULLIVAN WI
900 PM CDT FRI JUL 31 2015

NOTE: "FAIR" INDICATES FEW OR NO CLOUDS BELOW 12,000 FEET WITH NO
SIGNIFICANT WEATHER AND/OR OBSTRUCTIONS TO VISIBILITY.

WIZ001-002-006>008-014>016-023>028-010300-
NORTHWEST WISCONSIN

CITY           SKY/WX    TMP DP  RH WIND       PRES   REMARKS
SUPERIOR ARPT  CLEAR     68  52  56 W6        29.91S
ASHLAND        PTCLDY    60  58  92 CALM      29.91S
HAYWARD        CLEAR     71  50  47 CALM      29.94S
SIREN          CLEAR     67  55  65 CALM      29.96R
CUMBERLAND     CLEAR     61  54  77 W5        29.96S
RICE LAKE      CLEAR     66  52  61 W5        29.97S
CHETEK         CLEAR     68  53  57 CALM      29.96R
LADYSMITH      CLEAR     67  54  61 W5        29.97R
EAU CLAIRE     CLEAR     68  53  58 W3        29.96R
MENOMONIE      CLEAR     69  52  53 SW6       29.97S
NEW RICHMOND   PTCLDY    65  54  67 SW5       29.98R
OSCEOLA        PTCLDY    70  53  56 W3        29.99S
$$

WIZ003>005-009-010-017-018-010300-
NORTH CENTRAL WISCONSIN

CITY           SKY/WX    TMP DP  RH WIND       PRES   REMARKS
MANITOWISH WTR CLEAR     57  57 100 CALM      29.93S
ARBOR VITAE    CLEAR     62  58  87 CALM      29.94R
WOODRUFF       CLEAR     62  58  87 CALM      29.94R
RHINELANDER    CLEAR     57  55  93 W5        29.95S
EAGLE RIVER    CLEAR     56  51  81 CALM      29.93R
LAND O LAKES   PTCLDY    58  52  82 CALM      29.94R
PHILLIPS       PTCLDY    60  59  98 CALM      29.94R
TOMAHAWK       PTCLDY    56  55  94 CALM      29.95R
MEDFORD        CLEAR     66  53  63 W5        29.95S
MERRILL        NOT AVBL
$$

WIZ029-030-035-036-043>047-010300-
CENTRAL WISCONSIN

CITY           SKY/WX    TMP DP  RH WIND       PRES   REMARKS
WAUSAU         PTCLDY    66  55  67 CALM      29.94S
MOSINEE        CLEAR     64  55  72 CALM      29.96S
MARSHFIELD     CLEAR     67  51  56 W5        29.96R
STEVENS POINT  PTCLDY    65  52  62 NE7       29.96R
WAUPACA        MOCLDY    72  53  51 N3        29.95R
WAUTOMA        CLEAR     70  51  50 W6        29.95S
WISC RAPIDS    CLEAR     69  50  50 W6        29.96S
CAMP DOUGLAS   CLEAR     62  55  78 W7        29.96S
$$

WIZ011>013-019>022-031-037>040-048>050-010300-
NORTHEAST WISCONSIN

CITY           SKY/WX    TMP DP  RH WIND       PRES   REMARKS
ANTIGO         PTCLDY    58  55  90 W3        29.95S
SHAWANO        MOCLDY    68  55  63 W3        29.93S
OCONTO         PTCLDY    71  53  54 W7        29.89R
STURGEON BAY   PTCLDY    70  54  56 W7        29.92R
GREEN BAY      CLOUDY    70  53  54 NW8       29.92R
MANITOWOC      CLOUDY    74  51  44 MISG      29.91R
APPLETON       MOCLDY    70  52  52 VRB5      29.94R
CLINTONVILLE   CLOUDY    68  52  56 NW6       29.93S
OSHKOSH        PTCLDY    72  52  49 W7        29.93R
$$

WIZ032>034-041-042-053>061-010300-
SOUTHWEST WISCONSIN

CITY           SKY/WX    TMP DP  RH WIND       PRES   REMARKS
LA CROSSE      CLEAR     72  55  55 W5        29.97S
SPARTA         CLEAR     63  52  67 CALM      29.98S
VIROQUA        CLEAR     67  53  59 W3        30.01R
BOSCOBEL       CLEAR     68  58  70 CALM      29.99R
PRAIRIE DU CHI CLEAR     73  53  49 CALM      29.99S
PLATTEVILLE    CLEAR     70  53  54 W5        30.00S
$$

WIZ056-057-062-063-064-067-068-010300-
SOUTH CENTRAL WISCONSIN

CITY           SKY/WX    TMP DP  RH WIND       PRES   REMARKS
REEDSBURG      CLEAR     70  52  52 CALM      29.97S
BARABOO/DELLS  CLEAR     70  47  44 W3        29.97S
LONE ROCK      CLEAR     66  56  70 CALM      29.99R
MINERAL POINT  CLEAR     68  54  60 W3        30.01R
MADISON        CLEAR     72  50  45 CALM      29.97R
MIDDLETON      CLEAR     66  52  61 W3        29.99R
WATERTOWN      CLEAR     69  54  58 W3        29.95S
MONROE         CLEAR     72  54  53 W8        29.99R
JANESVILLE     CLEAR     70  52  52 NW6       29.96S
$$

WIZ051-052-058>065-066-070>072-010300-
SOUTHEAST WISCONSIN

CITY           SKY/WX    TMP DP  RH WIND       PRES   REMARKS
MILWAUKEE      PTCLDY    77  49  37 W9        29.94R
WAUKESHA       CLEAR     70  50  49 W10       29.96R
MILWAUKEE/TIMM CLEAR     75  45  33 W8        29.95R
RACINE         CLEAR     73  50  44 W6        29.96R
BURLINGTON     CLEAR     67  50  53 W3        29.96S
KENOSHA        CLEAR     67  52  58 W6        29.95R
FOND DU LAC    CLEAR     70  53  54 W6        29.94R
SHEBOYGAN      CLEAR     71  53  52 W6        29.92R
WEST BEND      CLEAR     72  48  43 W5        29.94R
JUNEAU         CLEAR     68  54  60 W3        29.96R
$$

LSZ147-162-010300-
LAKE SUPERIOR

STATION/POSITION TIME  TEMP    WIND        PRES    WAVE
                       AIR SEA DIR/SP/G            HT/PER
                 (UTC) (F)     (DEG/KT/KT) (MB)    (FT/S)
W MID LAKE BUOY  0150   58 53  250/ 10/ 10 1011.0R   1/ 4
DEVILS ISLAND    0200   68     310/  6/  6 1012.0S
PORT WING        0100   71     210/  5/  7 1012.5S
SAXON HARBOR     0100   67                 1011.9
$$

LMZ867-665-643>646-010300-
LAKE MICHIGAN

STATION/POSITION TIME  TEMP    WIND        PRES    WAVE
                       AIR SEA DIR/SP/G            HT/PER
                 (UTC) (F)     (DEG/KT/KT) (MB)    (FT/S)
CHAMBERS ISLAND  0100   71     270/  3/  5 1011.5R
S GREEN BAY BUOY 0130   72 72  280/ 14/ 17 1013.5R
N MID LAKE BUOY  0150   70 69  300/ 12/ 14 1010.7R   1/ 3
NORTHPORT PIER   0100   73     300/  9/ 11 1010.8S
SISTER BAY       0044   74     330/ 13/ 15   N/A
ALGOMA LAKESHORE 0112             CALM       N/A
KEWAUNEE LAKESHO 0200   72     300/  6/ 10 1011.9R
SHEBOYGAN LAKESH 0200   75     290/ 10/ 12 1013.0R
PORT WASHINGTON  0100   78     290/  4/ 10 1013.2
ATWATER BUOY     0200   73 69  280/  6/  8 1015.0R
MILWAUKEE LAKESH 0200   77     290/  7/  9   N/A
KENOSHA   LAKESH 0200   76     290/  7/ 11 1013.5R
$$

TC  - TEMPERATURE IN CELSIUS
VSB - VISIBILITY IN STATUTE MILES
WCI - WIND CHILL INDEX
HX  - HEAT INDEX




USA.gov is the U.S. government's official web portal to all federal, state and local government web resources and services.